Location: Bow
(51.5261°N, 0.0167°W)
Time: 06:14:29
(UTC+00:00)

Resurs 1-3 - Pass Details

Date: 18 September 2020
Orbit: 630 x 632 km, 97.9° (Epoch: 18 October)

Event Time Altitude Azimuth Distance (km) Brightness Sun altitude
Exits shadow 20:01:16 28° 158° (SSE) 1,196 4.6 -18.0°
Maximum altitude 20:03:35 81° 74° (ENE) 647 3.5 -18.3°
Drops below altitude 10° 20:08:00 10° 348° (NNW) 2,026 6.7 -18.9°
Sets 20:10:12 0° 347° (NNW) 2,939 7.7 -19.2°
